Probability
13 16 19 16 19 13 10 6 0 6 3 0 0 0 3 6 0 10 29 84 90 90 77 61 77 68 71 65 65 68 61 48 48 52 45 52 55 35 29 32 26 23 32
13 3 6 16 16 3 6 3 3 3 0 0 0 3 3 3 3 3 10 71 90 87 84 77 74 77 71 65 65 68 71 61 52 55 45 42 45 42 23 26 23 19 29
10 10 0 0 0 0 3 3 0 0 0 3 0 3 0 0 6 3 10 19 58 90 90 90 84 77 71 71 65 68 71 71 58 58 48 45 39 39 45 39 26 23 29
16 13 6 0 0 0 0 0 3 0 0 0 0 0 0 0 6 6 6 3 3 26 74 84 84 84 71 71 71 68 71 77 74 61 55 42 42 45 48 42 39 35 26
10 6 10 0 3 0 0 0 0 0 0 0 0 0 0 0 0 3 3 3 0 0 6 48 87 87 81 71 71 71 68 68 71 68 65 45 45 52 48 39 32 29 19
13 6 3 3 3 0 0 0 0 0 0 0 0 0 0 0 0 0 0 3 3 0 0 3 26 52 81 81 77 77 74 68 68 65 61 52 52 52 48 39 35 29 23
10 3 6 3 0 0 0 0 0 0 0 0 0 0 0 0 0 0 0 0 0 0 0 0 3 0 10 71 81 87 81 74 74 77 65 55 55 61 52 35 39 32 26
10 6 3 3 0 0 0 0 0 0 0 0 0 0 0 0 0 0 0 0 0 0 0 0 0 0 0 0 6 71 84 81 74 68 65 55 58 61 58 26 19 23 16
13 3 3 0 3 0 0 0 0 0 0 0 0 0 0 0 0 0 0 0 0 0 0 0 0 0 3 0 0 10 61 65 74 71 68 68 58 48 29 16 13 13 13
16 10 3 3 6 3 0 0 3 0 0 0 0 0 0 0 0 0 0 0 0 0 0 0 0 0 0 0 0 0 16 48 71 74 68 71 52 32 23 16 19 19 13
19 16 16 16 10 3 3 3 3 0 0 0 3 0 0 0 0 0 0 0 0 0 0 0 0 0 0 0 0 0 0 10 16 45 58 58 61 52 29 23 19 19 26
19 16 16 16 16 10 3 6 6 6 6 6 3 3 0 0 0 0 0 0 0 0 0 0 0 0 0 0 0 6 10 0 3 3 16 32 42 45 39 29 26 16 13
16 10 16 13 10 10 13 6 3 6 6 6 3 0 0 0 3 3 3 3 0 0 0 0 0 0 0 0 0 6 13 0 0 0 0 0 6 16 26 26 23 29 19
10 13 13 13 16 19 19 6 3 6 6 6 6 3 3 0 3 3 3 3 3 3 0 0 0 0 0 0 0 0 3 0 0 0 0 0 0 0 0 6 6 10 10
16 16 16 10 13 13 13 10 6 6 6 6 3 3 0 3 3 3 3 3 3 3 3 3 0 0 0 0 0 0 0 0 0 0 0 0 0 0 0 0 0 0 0
16 19 16 10 10 6 10 10 10 6 3 3 3 3 3 3 3 3 3 3 3 3 3 3 3 3 0 3 0 0 0 0 0 0 0 0 0 0 0 0 0 0 0
10 6 3 6 10 10 10 10 10 6 6 6 6 3 3 3 3 3 3 3 3 3 3 3 3 3 0 0 0 0 0 0 0 0 0 0 0 0 0 0 0 0 0
6 6 10 10 10 10 10 13 10 10 10 6 6 6 6 6 6 3 3 3 3 3 3 3 3 3 3 0 0 0 0 3 0 0 0 0 0 0 0 0 0 0 0
13 10 10 13 10 13 10 10 6 10 6 6 6 6 3 3 3 3 3 3 3 3 3 3 3 3 3 3 3 3 3 0 0 0 0 0 0 0 0 0 0 0 0
13 16 16 13 13 13 13 10 6 3 3 3 6 6 6 6 3 3 3 3 3 3 3 3 3 3 3 3 3 3 3 0 0 0 0 0 0 0 0 0 0 0 0
16 13 13 13 13 13 6 0 0 0 0 0 3 3 3 3 0 0 0 0 0 0 0 0 0 0 0 0 0 0 0 0 0 0 0 0 0 0 0 0 0 0 0
16 13 13 10 6 6 3 0 0 0 0 0 0 0 0 0 0 0 0 0 0 0 0 0 0 0 0 0 0 0 0 0 0 0 0 0 0 0 0 0 0 0 0
13 10 6 3 3 3 3 0 0 0 0 0 0 0 0 0 0 0 0 0 0 0 0 0 0 0 0 0 0 0 0 0 0 0 0 0 0 0 0 0 0 0 0
6 6 6 6 3 3 0 0 0 0 0 0 0 0 0 0 0 0 0 0 0 0 0 0 0 0 0 0 0 0 0 0 0 0 0 0 0 0 0 0 0 0 0
6 6 3 3 3 3 0 0 0 0 0 0 0 0 0 0 0 0 0 0 0 0 0 0 0 0 0 0 0 0 0 0 0 0 0 0 0 0 0 0 0 0 0
3 6 3 3 3 3 0 0 0 0 0 0 0 0 0 0 0 0 0 0 0 0 0 0 0 0 0 0 0 0 0 0 0 0 0 0 0 0 0 0 0 0 0
Height
5906 5906 5906 5906 5906 5906 5906 5906 5906 5906 5906 5906 5906 5905 5905 5905 5905 5904 5904 5903 5903 5903 5903 5903 5902 5902 5901 5901 5901 5900 5900 5900 5900 5900 5900 5900 5900 5900 5900 5900 5900 5900 5900
5905 5906 5906 5906 5906 5906 5906 5906 5906 5906 5906 5906 5906 5905 5905 5905 5904 5904 5904 5903 5903 5903 5903 5902 5902 5901 5901 5901 5900 5900 5900 5899 5899 5899 5899 5899 5899 5899 5899 5899 5899 5899 5899
5905 5905 5906 5906 5906 5906 5906 5906 5906 5906 5906 5906 5906 5905 5905 5904 5904 5904 5904 5903 5903 5902 5902 5902 5902 5901 5900 5900 5900 5899 5899 5899 5899 5898 5898 5898 5898 5898 5898 5898 5898 5898 5898
5904 5904 5905 5905 5905 5905 5905 5906 5906 5905 5906 5906 5905 5905 5905 5904 5904 5904 5903 5903 5902 5902 5902 5901 5901 5900 5900 5899 5899 5899 5898 5898 5898 5898 5897 5897 5897 5897 5897 5897 5897 5896 5896
5904 5904 5904 5904 5904 5905 5905 5905 5905 5905 5905 5905 5905 5905 5904 5904 5904 5903 5903 5902 5902 5902 5901 5901 5900 5900 5899 5899 5898 5898 5897 5897 5897 5896 5896 5896 5895 5895 5895 5895 5895 5894 5894
5903 5903 5903 5903 5904 5904 5904 5904 5904 5905 5905 5905 5904 5904 5904 5904 5903 5903 5902 5902 5901 5901 5900 5900 5899 5899 5898 5898 5897 5897 5896 5896 5895 5895 5894 5894 5894 5893 5893 5893 5892 5892 5891
5902 5902 5902 5902 5902 5903 5903 5903 5903 5904 5904 5904 5904 5904 5903 5903 5902 5902 5902 5901 5900 5900 5899 5899 5898 5898 5897 5896 5896 5895 5895 5894 5894 5893 5893 5892 5892 5891 5891 5890 5890 5889 5889
5901 5901 5901 5901 5901 5901 5902 5902 5902 5902 5902 5902 5903 5902 5902 5903 5902 5901 5901 5900 5900 5899 5898 5897 5896 5896 5895 5895 5894 5893 5893 5892 5892 5891 5891 5890 5889 5889 5888 5888 5887 5886 5886
5899 5900 5899 5900 5900 5900 5900 5901 5901 5901 5901 5901 5901 5901 5901 5901 5900 5900 5899 5899 5898 5897 5896 5895 5895 5894 5893 5892 5892 5891 5890 5890 5889 5889 5888 5887 5887 5886 5885 5885 5884 5883 5882
5898 5898 5898 5898 5899 5899 5899 5899 5899 5899 5899 5900 5900 5900 5900 5899 5899 5898 5898 5897 5896 5895 5894 5893 5892 5891 5891 5890 5889 5888 5887 5886 5886 5885 5885 5884 5883 5883 5882 5881 5880 5879 5879
5897 5897 5897 5897 5897 5897 5897 5897 5897 5897 5897 5898 5898 5898 5898 5897 5897 5897 5896 5895 5894 5893 5892 5891 5890 5889 5888 5886 5885 5884 5884 5883 5882 5882 5881 5880 5879 5879 5878 5877 5876 5875 5874
5896 5896 5895 5896 5896 5896 5895 5895 5895 5895 5895 5895 5895 5895 5895 5895 5894 5893 5893 5892 5891 5890 5889 5888 5887 5885 5884 5883 5882 5881 5880 5879 5878 5878 5877 5876 5875 5874 5873 5872 5871 5870 5869
5895 5895 5894 5894 5894 5894 5894 5894 5893 5893 5893 5893 5893 5892 5892 5891 5891 5890 5889 5888 5887 5886 5885 5884 5883 5882 5880 5879 5878 5877 5876 5875 5873 5873 5872 5871 5869 5868 5867 5867 5866 5865 5863
5894 5893 5893 5893 5892 5892 5891 5891 5891 5890 5890 5890 5889 5889 5889 5888 5887 5886 5885 5884 5883 5882 5881 5880 5878 5877 5876 5874 5873 5872 5871 5869 5868 5867 5866 5864 5863 5862 5861 5860 5859 5858 5857
5893 5892 5891 5891 5890 5889 5889 5888 5888 5887 5887 5886 5886 5885 5885 5884 5883 5882 5881 5880 5879 5878 5877 5875 5874 5872 5870 5869 5868 5866 5865 5863 5861 5860 5859 5858 5856 5855 5854 5853 5852 5850 5849
5891 5890 5889 5889 5888 5887 5886 5885 5885 5884 5884 5883 5882 5882 5881 5880 5878 5877 5876 5875 5874 5873 5872 5870 5869 5867 5865 5864 5862 5860 5858 5856 5854 5853 5852 5851 5849 5848 5846 5845 5844 5842 5841
5890 5889 5888 5887 5886 5885 5883 5883 5882 5881 5880 5880 5878 5877 5876 5875 5874 5872 5871 5870 5869 5867 5866 5864 5862 5861 5859 5857 5855 5853 5851 5849 5847 5845 5844 5842 5841 5839 5838 5836 5835 5833 5831
5888 5886 5885 5884 5883 5882 5881 5880 5878 5877 5877 5875 5874 5873 5871 5870 5869 5868 5866 5864 5863 5861 5860 5858 5856 5854 5852 5850 5848 5846 5844 5842 5840 5838 5836 5834 5832 5830 5828 5827 5825 5823 5822
5886 5885 5883 5882 5880 5879 5877 5876 5875 5874 5872 5871 5870 5868 5866 5865 5864 5862 5861 5859 5857 5855 5853 5851 5849 5847 5845 5843 5841 5839 5836 5834 5832 5830 5827 5825 5823 5821 5819 5817 5815 5814 5812
5884 5882 5880 5879 5877 5876 5874 5873 5871 5870 5868 5867 5865 5863 5861 5860 5858 5857 5855 5853 5851 5849 5847 5844 5842 5840 5838 5835 5833 5830 5828 5826 5823 5821 5818 5816 5814 5812 5810 5807 5806 5804 5802
5881 5879 5877 5875 5874 5872 5870 5869 5867 5865 5864 5862 5860 5858 5856 5854 5852 5850 5848 5846 5844 5841 5839 5837 5835 5832 5830 5828 5825 5822 5819 5817 5814 5811 5809 5807 5804 5802 5800 5798 5796 5793 5791
5878 5876 5874 5872 5870 5868 5866 5864 5862 5861 5859 5857 5855 5853 5851 5849 5847 5844 5842 5839 5837 5834 5832 5829 5827 5824 5821 5819 5816 5813 5811 5808 5805 5803 5800 5797 5794 5792 5790 5787 5785 5783 5781
5874 5872 5870 5868 5866 5863 5861 5859 5858 5856 5854 5852 5850 5848 5846 5843 5840 5838 5835 5832 5829 5827 5824 5822 5819 5816 5813 5810 5808 5805 5802 5799 5796 5793 5790 5787 5784 5782 5779 5776 5774 5772 5769
5871 5868 5866 5864 5861 5859 5857 5855 5853 5851 5849 5847 5844 5842 5839 5837 5834 5831 5828 5825 5822 5819 5816 5813 5810 5807 5804 5801 5799 5796 5793 5790 5786 5784 5781 5778 5775 5772 5769 5766 5763 5760 5758
5867 5864 5862 5859 5857 5855 5853 5851 5848 5846 5844 5841 5839 5836 5833 5830 5827 5824 5821 5818 5815 5812 5808 5805 5802 5799 5796 5793 5790 5787 5784 5780 5777 5774 5771 5768 5764 5761 5758 5755 5752 5749 5746
5862 5860 5857 5855 5852 5850 5848 5845 5843 5840 5838 5835 5832 5829 5826 5823 5820 5817 5814 5811 5808 5804 5801 5797 5794 5791 5788 5784 5781 5778 5774 5771 5767 5764 5761 5757 5754 5750 5747 5744 5741 5738 5735
Wind_Speed
2 2 2 2 2 1 1 1 1 1 0 0 0 1 1 1 1 1 1 1 1 1 1 1 0 1 1 1 2 2 3 3 3 4 4 5 4 4 5 5 4 4 4
2 2 2 2 2 1 1 1 1 1 1 1 1 1 1 1 1 1 2 1 1 1 2 2 2 2 2 2 3 3 3 4 4 4 5 5 6 6 6 6 6 6 6
2 3 2 3 2 2 2 1 1 1 1 2 2 1 1 2 2 2 2 1 1 2 2 3 3 3 3 3 3 3 3 4 4 4 5 6 6 7 7 7 7 7 7
2 2 3 3 3 3 2 2 2 1 2 2 2 2 2 2 2 2 2 2 2 2 3 3 4 4 4 4 4 4 4 5 5 5 6 6 6 7 8 8 8 8 9
1 2 2 3 3 3 3 3 3 3 2 2 2 2 2 2 3 2 2 3 3 3 3 4 4 5 5 4 4 5 5 5 5 6 6 6 7 7 8 8 9 10 10
2 2 3 3 3 3 3 3 3 4 3 3 3 3 3 3 3 3 3 4 4 4 4 4 4 5 5 5 6 6 6 6 6 6 7 7 7 8 9 9 10 11 11
2 3 3 4 3 3 4 4 4 5 4 4 4 4 4 4 4 4 5 5 6 6 6 6 6 6 6 7 7 7 7 7 7 8 8 8 9 9 10 11 11 12 13
2 3 3 4 4 4 4 4 4 5 6 6 6 5 5 5 5 5 6 6 7 8 8 8 8 8 8 8 9 9 8 8 9 9 9 10 10 10 11 12 12 13 14
3 3 4 4 4 4 5 5 5 5 5 6 7 7 6 7 7 7 7 7 8 8 9 10 10 10 10 10 10 11 10 10 11 11 11 11 11 12 13 14 14 15 15
4 4 4 5 5 5 6 6 6 6 6 6 7 8 8 8 9 9 9 9 10 10 10 10 11 12 12 12 12 12 12 12 13 13 14 14 14 14 15 15 16 17 17
3 3 4 5 6 6 6 7 8 7 8 9 9 9 9 9 9 9 10 11 11 12 12 12 13 14 14 14 14 14 14 14 15 16 17 17 17 17 17 17 18 19 19
3 3 3 5 6 6 6 6 7 8 9 10 10 11 11 11 11 11 12 12 13 13 13 14 14 15 15 16 16 16 17 17 18 19 19 20 20 20 21 21 21 21 22
4 4 4 5 6 6 7 7 8 8 9 10 11 12 13 13 13 14 13 14 14 15 15 16 16 16 17 18 18 19 19 20 21 21 21 22 22 23 23 24 25 25 25
5 4 4 6 7 7 7 8 9 10 11 11 11 12 13 14 15 15 16 16 16 17 17 18 19 19 19 20 21 21 22 22 22 23 23 24 24 24 25 26 26 27 28
5 5 5 6 7 8 8 9 10 10 11 12 13 13 13 14 15 16 17 17 17 17 18 19 19 20 21 21 22 23 24 25 25 26 27 27 27 27 27 27 28 29 29
6 6 6 6 7 8 8 9 10 10 11 12 13 14 15 16 16 17 17 17 18 19 19 20 20 21 22 22 24 24 25 26 27 27 28 28 29 29 29 30 31 31 32
7 7 7 8 8 9 9 10 11 12 13 14 15 16 17 17 17 17 18 19 19 20 21 22 22 23 23 24 25 25 26 27 28 28 29 30 30 31 32 33 33 33 34
9 9 9 9 10 11 11 11 12 12 14 14 15 16 17 17 18 19 19 20 21 22 22 23 24 25 25 26 26 27 27 28 29 29 30 31 32 33 33 34 35 35 35
11 11 11 10 11 12 13 12 13 14 15 15 16 17 18 19 19 20 20 21 23 24 24 24 25 25 26 27 27 28 29 29 30 30 31 32 33 34 35 35 36 36 37
11 12 11 12 12 13 13 14 15 15 15 16 16 17 18 19 21 21 22 23 24 25 25 26 26 27 27 28 29 30 31 31 32 32 32 33 34 35 35 36 36 36 37
13 13 13 13 14 14 15 16 16 16 17 17 17 18 19 20 22 23 24 24 25 25 25 26 27 28 29 29 30 31 31 32 32 32 33 34 34 35 36 36 36 36 37
14 14 14 15 15 15 16 17 18 18 19 18 18 19 20 21 22 23 24 24 25 26 27 28 29 29 29 31 31 31 32 32 33 33 34 34 35 36 36 37 37 37 38
15 16 16 16 17 17 17 18 18 19 19 20 20 21 22 23 24 25 25 25 25 27 28 28 29 29 30 30 31 32 32 33 33 33 34 35 36 37 37 37 39 40 40
16 17 17 17 17 17 17 17 18 18 19 20 21 22 23 24 24 25 25 26 26 27 27 27 28 29 29 30 31 32 34 34 35 35 35 36 37 38 39 39 39 40 41
18 18 18 18 18 18 19 19 20 20 21 22 23 24 24 25 25 25 26 26 26 27 27 28 29 30 30 31 32 33 33 34 35 35 36 36 37 38 39 39 39 40 40
19 19 19 19 19 19 20 21 21 22 23 23 24 25 25 25 25 26 26 26 27 27 28 29 29 29 30 31 32 33 34 35 35 36 36 37 37 38 38 38 39 39 39
Wind_Direction
210 188 174 167 162 162 168 214 237 241 260 263 356 340 325 316 302 318 324 325 258 225 224 220 250 314 304 272 265 264 260 254 248 245 240 240 241 242 239 238 240 243 245
203 183 184 189 194 212 247 251 249 254 275 284 262 271 279 258 250 282 292 294 284 239 244 254 265 270 279 280 274 267 264 262 257 252 247 246 245 246 244 242 244 249 253
217 200 200 208 223 238 251 246 240 239 253 258 265 271 267 261 281 276 274 274 282 270 262 264 272 273 270 275 279 272 263 258 253 254 255 254 253 248 245 245 249 255 258
220 210 218 226 232 240 240 226 228 239 240 246 259 270 279 276 286 269 266 269 272 276 274 273 279 280 272 274 274 271 269 262 257 259 260 260 261 257 251 252 257 260 261
234 235 229 230 234 245 238 225 221 233 237 248 266 283 286 284 288 271 264 271 271 270 273 272 277 278 276 274 270 268 270 272 266 264 263 262 263 263 262 261 261 264 266
254 243 237 234 236 248 240 226 225 238 243 254 268 276 276 272 277 265 264 273 271 268 266 265 274 278 275 272 268 267 266 266 265 269 267 265 267 266 265 263 265 266 268
271 250 239 233 234 234 230 236 235 237 242 252 261 266 273 272 268 261 265 269 270 272 269 266 272 276 275 273 270 268 267 265 263 266 268 267 268 270 269 267 267 269 269
267 243 238 237 236 229 232 241 246 247 247 247 252 258 265 268 266 269 272 274 273 278 274 276 272 273 272 271 270 267 268 267 266 267 268 267 268 269 271 270 270 270 270
279 260 245 241 239 235 235 243 251 255 254 250 247 251 256 260 269 270 272 274 275 276 273 274 270 272 272 269 267 267 266 268 269 267 266 268 270 271 272 272 270 271 271
290 278 249 239 238 241 246 252 257 262 259 256 255 255 261 264 266 268 270 273 275 278 276 272 273 273 274 272 268 268 268 267 268 267 266 267 269 271 273 273 273 273 273
297 278 256 255 251 251 256 258 260 263 263 262 263 264 269 270 272 274 276 279 278 275 272 272 276 275 272 272 271 270 274 272 272 270 268 268 269 270 272 273 273 274 274
297 277 270 261 260 259 264 268 264 266 266 266 267 268 268 271 273 275 276 277 280 278 274 274 276 277 276 276 273 274 276 274 273 272 270 268 269 270 271 272 274 274 274
318 295 276 270 270 268 266 267 271 272 271 270 271 272 273 272 274 275 276 278 278 277 276 277 278 278 276 277 277 276 276 275 272 273 272 271 271 272 273 272 273 274 274
332 312 284 273 271 271 273 272 273 276 274 272 274 276 275 274 274 275 276 279 278 278 277 278 277 278 279 279 278 278 278 278 276 275 274 274 277 275 274 275 274 274 274
333 323 304 283 276 278 276 275 273 276 276 277 278 280 279 279 277 278 281 280 280 280 280 281 280 281 281 281 281 280 279 279 277 274 274 275 275 275 275 275 276 275 274
324 321 317 309 298 288 284 280 281 278 281 285 285 283 282 281 280 281 282 282 282 282 284 282 280 281 282 282 284 284 283 281 279 277 276 276 276 274 274 275 276 276 275
331 322 312 307 301 296 292 287 283 283 283 284 284 284 284 282 283 285 285 285 285 285 284 282 281 282 282 282 284 284 284 282 282 279 278 277 276 275 274 275 276 276 275
325 319 312 305 300 297 293 289 287 288 288 288 288 286 284 284 285 287 288 287 287 288 287 286 283 283 285 285 285 285 284 283 283 281 279 278 277 276 275 276 275 276 276
319 315 312 309 305 302 298 295 293 292 291 290 289 289 287 285 286 288 289 289 288 289 288 288 286 285 285 286 286 286 286 285 284 282 280 279 278 277 276 276 276 276 277
317 315 309 307 303 302 302 299 297 294 294 294 293 293 291 288 288 288 289 290 290 289 289 288 286 286 286 286 286 286 286 286 284 283 281 280 279 278 277 275 276 277 278
316 314 310 306 303 301 300 297 295 296 296 296 294 295 297 294 291 291 290 290 290 290 291 290 288 286 287 287 288 287 286 286 285 284 282 282 281 279 278 279 279 280 280
316 311 310 308 303 301 299 297 295 296 298 298 297 297 297 297 296 295 293 292 291 292 292 292 291 289 289 289 288 288 288 287 286 285 285 283 282 281 280 280 280 281 282
314 314 311 311 309 304 300 299 296 298 299 299 298 300 300 299 299 300 299 298 296 295 294 294 293 293 291 291 290 290 288 288 287 286 285 283 283 282 282 282 282 282 282
318 316 316 315 312 309 308 308 307 307 305 302 301 300 301 301 302 301 300 299 298 297 297 297 297 295 295 293 292 291 290 290 289 287 286 284 283 283 283 283 283 282 282
316 315 314 313 311 309 308 308 307 307 306 304 302 301 301 302 301 301 301 300 300 299 298 298 298 298 296 294 293 292 291 291 290 289 288 287 286 286 286 286 285 284 283
314 313 312 310 309 311 310 307 306 305 305 304 303 303 303 303 303 303 302 302 302 301 300 300 299 298 297 296 295 293 293 292 292 291 290 289 288 288 287 287 286 285 285